This is the latest recevied weather packets stored in our database for station/object KQ4UWH. If no packets are shown the sender has not sent any weather packets the latest 10 day(s).
| Time | Temp. | Humidity | Pressure | Rain* | Wind** | Luminosity | Snow |
|---|---|---|---|---|---|---|---|
| 1777748127 | 20.56° C | 40% | 1239.7 hPa | 0 mm | - | 712 W/m² | - |
| 1777747824 | 20.56° C | 40% | 1239.7 hPa | 0 mm | - | 188 W/m² | - |
| 1777747520 | 20.56° C | 42% | 1239.7 hPa | 0 mm | - | 232 W/m² | - |
| 1777747216 | 20.56° C | 38% | 1239.7 hPa | 0 mm | - | 159 W/m² | - |
| 1777746913 | 20.56° C | 40% | 1239.7 hPa | 0 mm | - | 728 W/m² | - |
| 1777746609 | 20.56° C | 42% | 1239.7 hPa | 0 mm | - | 350 W/m² | - |
| 1777746303 | 20.56° C | 42% | 1239.7 hPa | 0 mm | - | 501 W/m² | - |
| 1777746000 | 20.56° C | 41% | 1239.7 hPa | 0 mm | - | 716 W/m² | - |
| 1777745698 | 21.11° C | 41% | 1239.7 hPa | 0 mm | - | 742 W/m² | - |
| 1777745397 | 20.56° C | 43% | 1239.7 hPa | 0 mm | - | 744 W/m² | - |
| 1777745093 | 20.56° C | 42% | 1239.7 hPa | 0 mm | - | 745 W/m² | - |
| 1777744789 | 20.56° C | 43% | 1239.7 hPa | 0 mm | - | 755 W/m² | - |
| 1777744484 | 20.56° C | 46% | 1239.7 hPa | 0 mm | - | 753 W/m² | - |
| 1777744181 | 20° C | 48% | 1239.7 hPa | 0 mm | - | 755 W/m² | - |
| 1777743878 | 20° C | 47% | 1239.7 hPa | 0 mm | - | 756 W/m² | - |
| 1777743574 | 20° C | 45% | 1239.7 hPa | 0 mm | - | 496 W/m² | - |
| 1777743271 | 20° C | 47% | 1239.7 hPa | 0 mm | - | 145 W/m² | - |
| 1777742970 | 20.56° C | 46% | 1239.7 hPa | 0 mm | - | 804 W/m² | - |
| 1777742666 | 20° C | 49% | 1239.7 hPa | 0 mm | - | 795 W/m² | - |
| 1777742362 | 20.56° C | 47% | 1239.7 hPa | 0 mm | - | 31 W/m² | - |
| 1777742058 | 20° C | 46% | 1239.7 hPa | 0 mm | - | 748 W/m² | - |
| 1777741756 | 19.44° C | 48% | 1239.7 hPa | 1.78 mm | - | 761 W/m² | - |
| 1777741453 | 20° C | 47% | 1239.7 hPa | 1.78 mm | - | 11 W/m² | - |
| 1777741148 | 19.44° C | 51% | 1239.7 hPa | 0 mm | - | 16 W/m² | - |
| 1777740846 | 18.89° C | 52% | 1239.7 hPa | 0 mm | - | 8 W/m² | - |
* Rain latest hour (hover to see other rain measurements)
** Current wind speed in m/s (hover to see current wind gust speed)